Cadillac, MI

10:50 AM EST on November 17, 2019 (GMT -0500)
Wexford County

Weather History for KCAD - June, 2019

Change the Weather History Date:

Saturday, June 8, 2019

  Actual Average Record
Temperature  
Mean Temperature 65 °F -  
Max Temperature 83 °F 75 °F 91 °F (2011)
Min Temperature 47 °F 49 °F 18 °F (1949)
Growing Degree Days 15 (Base 50)    
Moisture  
Dew Point 47 °F    
Average Humidity 53    
Maximum Humidity 95    
Minimum Humidity 23    
Precipitation  
Precipitation 0.00 in - - ()
Sea Level Pressure  
Sea Level Pressure 30.10 in    
Wind  
Wind Speed 5 mph (ESE)    
Max Wind Speed 16 mph    
Max Gust Speed 22 mph    
Visibility 10 miles    
Events      
Averages and records for this station are not official NWS values.
T = Trace of Precipitation, MM = Missing Value Source: NWS Daily Summary

Daily Weather History Graph

Daily Weather History Graph

Search for Another Location

Airport or City:

Astronomy

Jun. 08, 2019 Rise Set
Actual Time 5:58 AM EDT 9:23 PM EDT
Civil Twilight 5:21 AM EDT 9:59 PM EDT
Nautical Twilight 4:34 AM EDT 10:47 PM EDT
Astronomical Twilight 3:34 AM EDT 11:47 PM EDT
Moon 11:30 AM EDT (6/8) 1:20 AM EDT (6/8)
Length of Visible Light 16h 37m
Length of Day
15h 25m
Waxing Crescent, 32% of the Moon is Illuminated
Jun 8
Waxing Crescent
Jun 10
First Quarter
Jun 17
Full
Jun 25
Last Quarter
Jul 2
New

Hourly Weather History & Observations

Time (EDT) Temp. Dew Point Humidity Pressure Visibility Wind Dir Wind Speed Gust Speed Precip Events Conditions
12:15 AM 55.4 °F 48.4 °F 77% 30.09 in 10.0 mi Calm Calm - N/A   Clear
12:16 AM 55.4 °F 48.2 °F 77% 30.09 in 10.0 mi Calm Calm - N/A   Clear
12:39 AM 54.3 °F 48.4 °F 80% 30.09 in 10.0 mi Calm Calm - N/A   Clear
12:57 AM 54.0 °F 48.6 °F 82% 30.09 in 10.0 mi Calm Calm - N/A   Clear
1:15 AM 53.2 °F 48.7 °F 85% 30.09 in 10.0 mi Calm Calm - N/A   Clear
1:16 AM 53.2 °F 48.6 °F 84% 30.09 in 10.0 mi Calm Calm - N/A   Clear
1:35 AM 51.6 °F 48.7 °F 90% 30.09 in 10.0 mi Calm Calm - N/A   Clear
1:55 AM 51.6 °F 48.6 °F 89% 30.09 in 10.0 mi Calm Calm - N/A   Clear
2:18 AM 50.4 °F 48.9 °F 95% 30.09 in 10.0 mi Calm Calm - N/A   Clear
2:36 AM 49.1 °F 47.7 °F 95% 30.09 in 10.0 mi Calm Calm - N/A   Clear
2:55 AM 49.5 °F 48.0 °F 95% 30.09 in 10.0 mi Calm Calm - N/A   Clear
2:56 AM 49.3 °F 47.8 °F 95% 30.09 in 10.0 mi Calm Calm - N/A   Clear
3:15 AM 49.8 °F 48.2 °F 94% 30.08 in 10.0 mi Calm Calm - N/A   Clear
3:16 AM 49.8 °F 48.2 °F 94% 30.08 in 10.0 mi Calm Calm - N/A   Clear
3:39 AM 47.8 °F 46.4 °F 95% 30.08 in 10.0 mi Calm Calm - N/A   Clear
3:57 AM 48.4 °F 46.9 °F 95% 30.09 in 10.0 mi Calm Calm - N/A   Clear
4:15 AM 47.5 °F 46.0 °F 95% 30.09 in 10.0 mi Calm Calm - N/A   Clear
4:35 AM 47.5 °F 45.9 °F 94% 30.09 in 10.0 mi NE 3.5 mph - N/A   Clear
4:55 AM 48.9 °F 45.5 °F 88% 30.09 in 10.0 mi Calm Calm - N/A   Clear
5:18 AM 48.2 °F 44.4 °F 87% 30.10 in 10.0 mi NE 3.5 mph - N/A   Clear
5:36 AM 51.1 °F 44.2 °F 77% 30.10 in 10.0 mi ENE 4.6 mph - N/A   Clear
5:55 AM 52.2 °F 44.2 °F 74% 30.10 in 10.0 mi ENE 3.5 mph - N/A   Clear
5:56 AM 52.3 °F 44.2 °F 74% 30.10 in 10.0 mi ENE 3.5 mph - N/A   Clear
6:15 AM 50.7 °F 43.9 °F 77% 30.11 in 10.0 mi NE 3.5 mph - N/A   Clear
6:16 AM 50.5 °F 43.7 °F 77% 30.11 in 10.0 mi NE 3.5 mph - N/A   Clear
6:39 AM 51.3 °F 45.0 °F 79% 30.12 in 10.0 mi Calm Calm - N/A   Clear
6:57 AM 55.0 °F 45.5 °F 70% 30.12 in 10.0 mi Calm Calm - N/A   Clear
7:16 AM 55.9 °F 46.8 °F 71% 30.12 in 10.0 mi East 3.5 mph - N/A   Clear
7:36 AM 57.4 °F 46.4 °F 67% 30.13 in 10.0 mi ENE 4.6 mph - N/A   Clear
7:55 AM 60.1 °F 46.4 °F 61% 30.14 in 10.0 mi ENE 5.8 mph - N/A   Clear
8:00 AM 60.4 °F 46.8 °F 61% 30.14 in 10.0 mi East 5.8 mph - N/A   Clear
8:18 AM 62.1 °F 47.8 °F 60% 30.14 in 10.0 mi ENE 6.9 mph - N/A   Clear
8:36 AM 64.9 °F 47.8 °F 54% 30.14 in 10.0 mi ESE 6.9 mph - N/A   Clear
8:55 AM 66.4 °F 47.1 °F 50% 30.15 in 10.0 mi East 9.2 mph - N/A   Clear
9:15 AM 67.8 °F 47.1 °F 47% 30.16 in 10.0 mi East 9.2 mph - N/A   Clear
9:39 AM 69.8 °F 48.2 °F 46% 30.15 in 10.0 mi East 9.2 mph - N/A   Clear
9:57 AM 70.7 °F 48.4 °F 45% 30.16 in 10.0 mi ESE 10.4 mph - N/A   Clear
10:15 AM 72.3 °F 49.5 °F 44% 30.14 in 10.0 mi East 6.9 mph - N/A   Clear
10:16 AM 72.3 °F 49.6 °F 45% 30.14 in 10.0 mi East 8.1 mph - N/A   Clear
10:35 AM 73.8 °F 48.9 °F 41% 30.14 in 10.0 mi ESE 9.2 mph - N/A   Clear
10:36 AM 73.9 °F 48.9 °F 41% 30.14 in 10.0 mi ESE 6.9 mph - N/A   Clear
10:55 AM 75.2 °F 48.9 °F 39% 30.14 in 10.0 mi ESE 8.1 mph - N/A   Clear
11:17 AM 76.6 °F 48.9 °F 38% 30.14 in 10.0 mi ESE 9.2 mph - N/A   Clear
11:36 AM 77.0 °F 48.0 °F 36% 30.14 in 10.0 mi SE 8.1 mph - N/A   Clear
11:55 AM 78.8 °F 46.6 °F 32% 30.14 in 10.0 mi ESE 13.8 mph - N/A   Clear
12:15 PM 78.8 °F 46.6 °F 32% 30.14 in 10.0 mi East 10.4 mph 16.1 mph N/A   Clear
12:16 PM 79.0 °F 46.6 °F 32% 30.14 in 10.0 mi East 10.4 mph 16.1 mph N/A   Clear
12:38 PM 79.2 °F 46.9 °F 32% 30.13 in 10.0 mi ESE 4.6 mph 9.2 mph N/A   Clear
12:57 PM 79.9 °F 45.3 °F 29% 30.13 in 10.0 mi ESE 9.2 mph - N/A   Clear
1:15 PM 80.2 °F 44.8 °F 29% 30.12 in 10.0 mi SE 10.4 mph 18.4 mph N/A   Clear
1:35 PM 80.6 °F 45.1 °F 29% 30.12 in 10.0 mi ESE 8.1 mph - N/A   Clear
1:36 PM 80.8 °F 45.5 °F 29% 30.12 in 10.0 mi ESE 6.9 mph - N/A   Clear
1:55 PM 81.3 °F 44.8 °F 28% 30.11 in 10.0 mi SE 9.2 mph - N/A   Clear
2:00 PM 81.5 °F 45.0 °F 28% 30.11 in 10.0 mi SE 9.2 mph - N/A   Clear
2:18 PM 82.2 °F 43.7 °F 26% 30.11 in 10.0 mi SE 9.2 mph 17.3 mph N/A   Clear
2:36 PM 82.8 °F 44.4 °F 26% 30.10 in 10.0 mi SE 11.5 mph - N/A   Clear
2:55 PM 81.7 °F 44.4 °F 27% 30.10 in 10.0 mi ESE 11.5 mph 16.1 mph N/A   Clear
3:15 PM 82.0 °F 42.3 °F 24% 30.10 in 10.0 mi East 15.0 mph 19.6 mph N/A   Clear
3:39 PM 82.0 °F 44.4 °F 27% 30.10 in 10.0 mi East 12.7 mph 18.4 mph N/A   Clear
3:57 PM 82.0 °F 42.6 °F 25% 30.10 in 10.0 mi ESE 10.4 mph - N/A   Clear
4:15 PM 82.4 °F 43.7 °F 26% 30.09 in 10.0 mi ESE 8.1 mph - N/A   Clear
4:16 PM 82.4 °F 43.5 °F 25% 30.09 in 10.0 mi East 11.5 mph 17.3 mph N/A   Clear
4:35 PM 83.1 °F 42.1 °F 23% 30.09 in 10.0 mi East 16.1 mph - N/A   Clear
4:36 PM 83.3 °F 42.1 °F 23% 30.09 in 10.0 mi East 15.0 mph 18.4 mph N/A   Clear
4:55 PM 80.8 °F 43.0 °F 26% 30.08 in 10.0 mi SE 13.8 mph - N/A   Clear
5:00 PM 81.5 °F 43.2 °F 26% 30.09 in 10.0 mi ESE 13.8 mph - N/A   Clear
5:18 PM 81.0 °F 40.6 °F 24% 30.08 in 10.0 mi ESE 12.7 mph - N/A   Clear
5:36 PM 81.0 °F 41.9 °F 25% 30.08 in 10.0 mi ESE 16.1 mph - N/A   Clear
5:55 PM 79.9 °F 43.2 °F 27% 30.08 in 10.0 mi ESE 9.2 mph 21.9 mph N/A   Clear
5:56 PM 79.9 °F 43.5 °F 28% 30.08 in 10.0 mi ESE 10.4 mph 21.9 mph N/A   Clear
6:15 PM 80.6 °F 45.5 °F 29% 30.08 in 10.0 mi ESE 15.0 mph 18.4 mph N/A   Clear
6:16 PM 80.4 °F 45.3 °F 29% 30.08 in 10.0 mi ESE 16.1 mph - N/A   Clear
6:39 PM 79.9 °F 47.1 °F 32% 30.08 in 10.0 mi ESE 11.5 mph 17.3 mph N/A   Clear
6:57 PM 78.8 °F 46.9 °F 32% 30.07 in 10.0 mi ESE 13.8 mph - N/A   Clear
7:15 PM 78.1 °F 46.9 °F 33% 30.07 in 10.0 mi SE 10.4 mph - N/A   Clear
7:35 PM 76.1 °F 46.4 °F 35% 30.07 in 10.0 mi ESE 15.0 mph 18.4 mph N/A   Clear
7:55 PM 75.4 °F 46.8 °F 36% 30.08 in 10.0 mi ESE 8.1 mph - N/A   Clear
8:18 PM 75.7 °F 47.3 °F 36% 30.07 in 10.0 mi ESE 11.5 mph - N/A   Clear
8:35 PM 74.5 °F 46.9 °F 38% 30.07 in 10.0 mi ESE 9.2 mph 16.1 mph N/A   Clear
8:55 PM 72.5 °F 47.3 °F 41% 30.08 in 10.0 mi ESE 6.9 mph - N/A   Clear
8:56 PM 72.3 °F 47.5 °F 41% 30.08 in 10.0 mi ESE 6.9 mph - N/A   Clear
9:15 PM 70.0 °F 48.0 °F 46% 30.08 in 10.0 mi ESE 6.9 mph - N/A   Clear
9:38 PM 68.0 °F 48.6 °F 50% 30.07 in 10.0 mi ESE 6.9 mph - N/A   Clear
9:57 PM 66.7 °F 49.1 °F 53% 30.07 in 10.0 mi ESE 5.8 mph - N/A   Clear
10:15 PM 66.6 °F 49.3 °F 54% 30.07 in 10.0 mi East 5.8 mph - N/A   Clear
10:35 PM 66.2 °F 50.0 °F 56% 30.07 in 10.0 mi ESE 5.8 mph - N/A   Clear
10:55 PM 65.1 °F 50.4 °F 59% 30.08 in 10.0 mi East 5.8 mph - N/A   Clear
11:00 PM 65.5 °F 50.5 °F 58% 30.08 in 10.0 mi ESE 4.6 mph - N/A   Clear
11:18 PM 64.8 °F 50.9 °F 61% 30.08 in 10.0 mi ESE 5.8 mph - N/A   Clear
11:36 PM 65.5 °F 51.1 °F 60% 30.08 in 10.0 mi ESE 5.8 mph - N/A   Clear
11:55 PM 66.4 °F 51.1 °F 58% 30.08 in 10.0 mi ESE 8.1 mph - N/A   Clear
11:56 PM 66.4 °F 51.1 °F 58% 30.08 in 10.0 mi ESE 9.2 mph - N/A   Clear